This demonstration page uses our WeatherBlox Daily Observations layout. Learn more.

Left ArrowRight Arrow

Hourly Observations for April 17, 2015

Temp ( °F °C ) Dew Point ( °F °C ) Humidity (%) Winds ( mph kmh ) Pressure ( in mb ) Visibility ( mi km ) Precip ( " mm )
12:51 am 00:51 Clear 42 5.6 4 -15.6 20 20 N 7 11 30.00 1016 10 16 N/A
1:51 am 01:51 Clear 43 6.1 7 -13.9 22 22 S 5 7 29.98 1015 10 16 N/A
2:51 am 02:51 Clear 40 4.4 5 -15 23 23 SSE 7 11 29.98 1015 10 16 N/A
3:51 am 03:51 Clear 37 2.8 4 -15.6 25 25 ENE 5 7 29.98 1015 10 16 N/A
4:51 am 04:51 Clear 36 2.2 5 -15 27 27 E 8 13 29.98 1015 10 16 N/A
5:51 am 05:51 Sunny 35 1.7 6 -14.4 29 29 ESE 7 11 29.99 1016 10 16 N/A
6:51 am 06:51 Sunny 42 5.6 8 -13.3 24 24 SSE 6 9 30.01 1016 10 16 N/A
7:51 am 07:51 Sunny 54 12.2 9 -12.8 16 16 E 7 11 29.99 1016 10 16 N/A
8:51 am 08:51 Sunny 58 14.4 8 -13.3 13 13 N N/A 30.01 1016 10 16 N/A
9:51 am 09:51 Sunny 59 15 10 -12.2 14 14 VRB 6 9 30.00 1016 10 16 N/A
10:51 am 10:51 Sunny 64 17.8 11 -11.7 12 12 W 6 9 29.98 1015 10 16 N/A
11:51 am 11:51 Sunny 69 20.6 12 -11.1 11 11 W 13 20 29.94 1014 10 16 N/A
12:51 pm 12:51 Sunny 70 21.1 11 -11.7 10 10 WNW 20 31 29.93 1013 10 16 N/A
1:51 pm 13:51 Sunny 71 21.7 11 -11.7 10 10 W 17 28 29.90 1012 10 16 N/A
2:51 pm 14:51 Sunny 73 22.8 11 -11.7 9 9 WNW 16 26 29.87 1012 10 16 N/A
3:51 pm 15:51 Sunny 73 22.8 11 -11.7 9 9 NW 14 22 29.87 1011 10 16 N/A
4:51 pm 16:51 Sunny 73 22.8 10 -12.2 9 9 WNW 18 30 29.86 1011 10 16 N/A
5:51 pm 17:51 Sunny 71 21.7 10 -12.2 9 9 WNW 17 28 29.88 1012 10 16 N/A
6:51 pm 18:51 Clear 66 18.9 9 -12.8 10 10 WNW 14 22 29.90 1012 10 16 N/A
7:51 pm 19:51 Clear 63 17.2 12 -11.1 13 13 WNW 10 17 29.91 1013 10 16 N/A
8:51 pm 20:51 Clear 59 15 14 -10 17 17 N 12 19 29.93 1014 10 16 N/A
9:51 pm 21:51 Clear 57 13.9 14 -10 18 18 NNW 10 17 29.94 1014 10 16 N/A
10:51 pm 22:51 Clear 57 13.9 15 -9.4 19 19 NW 10 17 29.92 1013 10 16 N/A
11:51 pm 23:51 Clear 55 12.8 15 -9.4 20 20 NNW 10 17 29.93 1013 10 16 N/A

Powered by AerisWeather